Date,TemperatureHighF,TemperatureAvgF,TemperatureLowF,DewpointHighF,DewpointAvgF,DewpointLowF,HumidityHigh,HumidityAvg,HumidityLow,PressureMaxIn,PressureMinIn,WindSpeedMaxMPH,WindSpeedAvgMPH,GustSpeedMaxMPH,PrecipitationSumIn
2014-7-15,63.0,62.4,61.7,50.3,50.0,49.4,65,64,62,0.00,0.00,6,1,6,0.00
2014-7-16,77.0,66.2,55.9,54.6,50.4,45.7,86,59,39,29.94,0.00,8,1,9,0.00
2014-7-17,75.4,64.5,53.8,57.1,49.8,41.9,92,62,34,30.11,29.94,8,0,8,0.00
2014-7-18,78.6,67.0,52.3,57.4,49.9,44.9,85,58,32,30.23,30.11,6,0,6,0.00
2014-7-19,78.3,66.6,56.3,64.7,57.9,51.6,96,75,42,30.20,30.11,8,0,8,0.00
2014-7-20,78.6,68.9,62.8,65.5,63.4,60.5,98,84,56,30.11,30.06,6,0,6,0.00
2014-7-21,85.1,73.5,61.3,68.5,63.0,57.3,95,72,42,30.14,30.06,10,0,11,0.00
2014-7-22,89.1,75.4,59.2,67.1,62.2,55.6,89,66,41,30.11,29.94,8,0,8,0.00
2014-7-23,81.1,70.7,64.4,69.6,63.3,56.0,94,78,66,29.97,29.85,11,1,11,0.00
2014-7-24,69.4,64.1,55.2,58.8,48.0,38.9,84,59,34,30.03,29.97,11,2,11,0.00
2014-7-25,78.6,65.3,50.9,58.0,51.3,46.2,85,63,40,30.06,29.97,6,0,7,0.00
2014-7-26,81.9,70.0,56.8,62.7,55.9,49.7,89,64,35,29.97,29.76,8,1,8,0.00
2014-7-27,70.2,69.5,68.2,63.2,61.4,59.6,84,75,70,29.76,29.70,9,1,9,0.00
2014-8-7,57.6,57.1,56.8,51.1,50.9,50.7,81,80,79,30.09,30.09,0,0,0,0.00
2014-8-8,76.5,69.9,56.5,60.5,52.5,46.8,81,56,38,30.14,30.09,7,0,7,0.00
2014-8-9,78.4,66.3,51.6,59.3,50.4,44.4,86,61,31,30.14,30.11,8,0,8,0.00
2014-8-10,81.5,68.7,53.2,61.5,53.5,48.0,88,62,32,30.14,30.06,8,1,9,0.00
2014-8-11,83.5,70.7,57.4,64.9,54.6,46.5,92,60,33,30.09,29.88,12,2,12,0.00
2014-8-12,77.4,69.4,65.1,64.8,60.6,48.6,92,75,48,29.88,29.73,13,3,13,0.00
2014-8-13,75.0,67.0,55.6,66.1,57.3,46.0,98,73,49,29.88,29.70,10,2,10,0.00
2014-8-14,69.6,60.0,52.9,55.6,46.3,39.5,87,62,41,29.91,29.85,10,1,10,0.00
2014-8-15,74.3,61.9,54.1,49.3,46.2,42.1,76,58,34,29.94,29.88,9,2,9,0.00
2014-8-16,70.9,62.2,52.3,54.8,50.2,46.3,84,66,48,29.94,29.82,12,2,12,0.00
2014-8-17,74.1,65.6,60.4,61.3,55.2,49.8,93,71,46,29.97,29.82,9,0,9,0.00
2014-8-18,73.0,63.8,54.1,60.2,52.0,46.8,92,68,42,29.97,29.88,8,1,8,0.00
2014-8-19,79.5,64.9,51.3,61.4,54.3,46.7,94,71,38,29.91,29.82,7,0,7,0.00
2014-8-20,79.2,68.2,59.2,70.3,62.7,55.8,98,83,63,29.91,29.82,6,0,8,0.00
2014-8-21,83.1,71.8,61.5,73.2,61.9,55.6,98,74,42,29.97,29.91,8,1,8,0.00
2014-8-22,80.2,69.3,60.1,69.9,62.8,58.0,98,81,54,30.00,29.94,9,1,9,0.00
2014-8-23,76.3,68.6,62.8,70.4,63.6,58.8,98,85,64,30.11,30.00,10,2,10,0.00
2014-8-24,79.3,68.1,56.7,64.6,56.9,52.7,94,70,42,30.17,30.09,8,1,8,0.00
2014-8-25,80.8,68.7,55.2,64.9,56.3,51.7,92,68,40,30.17,30.09,8,0,8,0.00
2014-8-26,86.2,73.0,58.3,65.8,60.4,53.5,90,67,44,30.11,30.00,8,1,8,0.00
2014-8-27,79.9,70.5,60.8,69.0,60.4,49.5,98,73,43,30.06,30.00,5,0,5,0.00
2014-8-28,69.8,61.1,52.2,58.1,46.9,38.0,93,63,34,30.11,30.00,8,1,8,0.00
2014-8-29,74.5,61.7,48.4,58.6,48.7,43.8,87,66,34,30.20,30.09,8,1,8,0.00
2014-8-30,87.6,73.3,58.6,67.2,58.7,50.1,83,62,40,30.11,29.94,8,1,8,0.00
2014-8-31,77.2,72.7,66.7,69.4,67.3,64.7,94,83,72,29.97,29.94,11,2,11,0.00
2014-9-1,86.5,74.0,62.6,73.7,66.4,62.0,98,79,47,30.00,29.85,13,0,13,0.00
2014-9-2,83.8,73.2,65.7,75.4,67.5,63.6,98,83,60,29.91,29.79,14,1,14,0.00
2014-9-3,79.5,69.1,59.2,68.7,58.5,50.9,98,73,41,30.09,29.91,4,0,4,0.00
2014-9-4,84.0,69.6,57.0,68.4,59.0,54.2,96,72,40,30.09,30.03,5,0,5,0.00
2014-9-5,89.2,76.3,63.5,69.5,62.5,57.7,92,66,38,30.09,29.91,9,2,9,0.00
2014-9-6,70.3,66.5,54.0,67.9,60.0,42.6,97,80,53,30.06,29.85,5,1,5,0.00
2014-9-7,71.1,60.2,50.2,57.6,47.1,40.0,91,65,35,30.20,30.06,4,0,4,0.00
2014-9-8,75.4,61.9,46.8,57.4,47.8,43.0,89,64,35,30.26,30.17,11,2,12,0.00
2014-9-9,77.2,66.5,57.0,57.0,54.1,50.9,84,66,46,30.17,30.06,9,2,13,0.00
2014-9-10,77.9,69.8,63.1,63.5,60.8,57.2,90,74,55,30.06,29.67,14,2,15,0.00
2014-9-11,71.2,65.0,54.5,69.8,57.9,47.1,98,78,61,30.11,29.61,10,3,15,0.00
2014-9-12,58.1,52.4,44.8,49.1,43.1,37.0,91,72,46,30.23,30.11,9,1,9,0.00
2014-9-13,64.6,51.4,43.7,57.6,45.5,38.3,90,81,62,30.26,30.00,10,1,13,0.00
2014-9-14,60.4,51.0,38.7,47.6,39.8,34.2,86,68,41,30.32,30.20,7,0,7,0.00
2014-9-15,68.5,58.0,47.7,52.8,47.1,40.7,91,70,41,30.20,30.03,8,0,8,0.00
2014-9-16,66.4,56.9,46.8,59.1,47.1,33.6,98,74,35,30.06,30.00,5,0,6,0.00
2014-9-17,69.4,55.2,43.5,53.8,42.9,37.5,92,67,34,30.03,29.94,6,1,8,0.00
2014-9-18,63.1,51.1,44.1,56.1,46.2,39.8,93,83,69,30.11,29.97,10,2,11,0.00
2014-9-26,72.3,61.3,44.2,57.9,46.3,39.7,89,61,36,30.29,30.23,6,0,7,0.00
2014-9-27,74.7,59.7,45.9,59.3,47.0,41.0,93,67,31,30.29,30.20,6,0,6,0.00
2014-9-28,76.8,61.3,48.2,62.9,49.8,44.2,92,69,36,30.20,30.03,5,0,5,0.00
2014-9-29,76.1,62.3,50.9,62.5,51.3,47.1,94,70,39,30.03,29.88,6,0,6,0.00
2014-9-30,72.5,60.3,49.6,60.0,51.4,42.6,94,75,34,29.97,29.85,9,1,9,0.00
2014-10-1,67.6,59.6,58.1,63.9,58.5,55.9,98,96,69,30.09,29.97,8,1,8,0.00
2014-10-2,73.2,62.3,50.7,65.2,53.2,46.9,98,76,42,30.09,30.00,9,1,10,0.00
2014-10-3,72.1,63.2,57.0,57.4,53.2,47.8,88,72,45,30.00,29.55,18,5,22,0.00
2014-10-4,63.0,53.9,37.0,57.8,46.1,29.9,94,76,39,29.67,29.49,14,2,15,0.00
2014-10-5,51.1,44.7,36.7,43.9,36.8,29.5,83,74,56,29.85,29.67,10,1,10,0.00
2014-10-6,66.4,54.0,42.4,52.3,37.8,29.5,88,56,34,29.82,29.73,12,2,13,0.00
2014-10-7,66.2,59.0,53.4,52.1,44.7,33.3,89,63,31,29.85,29.67,13,2,15,0.00
2014-10-8,60.1,53.7,48.2,53.5,40.3,22.1,94,65,30,29.88,29.61,24,4,25,0.00
2014-10-9,59.0,48.4,36.9,40.1,29.6,23.7,80,51,27,30.03,29.88,15,3,15,0.00
2014-10-10,60.6,48.5,39.2,43.6,34.0,28.5,85,60,33,30.09,30.03,8,1,8,0.00
2014-10-11,57.0,45.5,34.5,45.5,33.7,27.0,88,66,37,30.20,30.06,6,0,7,0.00
2014-10-12,57.7,42.9,30.9,40.8,27.3,22.5,78,58,27,30.26,30.09,10,1,10,0.00
2014-10-13,71.8,57.6,35.6,59.3,49.1,27.1,86,74,50,30.11,30.00,12,2,12,0.00
2014-10-14,78.1,68.8,60.1,60.2,54.8,50.4,85,63,39,30.00,29.79,22,5,24,0.00
2014-10-15,70.3,62.8,57.4,61.3,57.6,52.6,98,84,64,29.85,29.73,19,2,19,0.00
2014-10-16,67.5,59.5,54.5,61.3,53.4,45.5,98,82,47,29.76,29.61,10,2,10,0.00
2014-10-17,64.2,57.5,53.1,57.3,49.7,42.0,98,78,47,29.64,29.52,13,2,14,0.00
2014-10-18,59.0,50.3,42.3,50.2,44.3,31.9,93,80,63,29.91,29.49,13,3,13,0.00
2014-10-19,47.8,40.5,33.4,32.7,26.4,22.3,75,58,39,30.06,29.91,10,2,11,0.00
2014-10-20,54.3,46.0,33.6,46.2,36.9,25.7,89,72,47,30.00,29.79,10,0,10,0.00
2014-10-21,55.8,49.6,43.7,54.2,48.3,43.2,98,95,89,30.06,29.76,14,2,15,0.00
2014-10-22,46.4,44.7,43.3,43.3,41.0,38.2,98,87,78,30.17,30.03,13,3,13,0.00
2014-10-23,58.5,48.9,38.7,42.2,34.7,29.3,90,62,35,30.11,29.97,11,2,13,0.00
2014-10-24,57.0,48.8,41.9,43.2,36.6,27.0,85,65,32,30.00,29.91,11,3,11,0.00
2014-10-25,65.7,55.0,47.8,50.3,45.7,37.5,88,73,36,29.91,29.55,17,4,27,0.00
2014-10-26,51.3,47.6,41.0,40.1,32.3,29.1,74,56,48,29.88,29.61,15,5,15,0.00
2014-10-27,58.3,46.6,33.6,39.6,31.3,26.9,82,58,35,30.00,29.82,7,1,8,0.00
2014-10-28,75.4,64.9,50.2,56.1,48.2,29.7,86,57,30,29.82,29.70,17,5,19,0.00
2014-10-29,56.7,50.0,45.1,50.9,39.4,34.2,81,67,52,29.94,29.82,10,2,10,0.00
2014-10-30,48.6,44.6,41.0,37.5,32.7,27.3,78,64,47,30.03,29.94,9,1,9,0.00
2014-10-31,50.7,44.0,39.6,40.0,36.1,31.7,87,74,51,30.00,29.88,8,1,8,0.00
2014-11-1,42.1,36.9,33.6,39.5,35.9,33.0,98,96,87,30.11,29.94,14,4,15,0.00
2014-11-2,39.9,35.8,32.5,34.0,24.2,13.0,98,68,34,30.20,30.11,16,3,16,0.00
2014-11-3,57.2,47.0,36.3,32.8,13.8,2.5,50,32,20,30.14,30.00,15,4,15,0.00
2014-11-4,66.0,57.5,51.3,47.4,19.6,6.4,81,30,20,30.03,29.85,15,5,15,0.00
2014-11-5,55.9,46.9,34.5,47.3,32.9,25.9,84,60,36,30.09,29.88,17,4,20,0.00
2014-11-6,45.0,40.2,32.7,41.0,36.1,26.3,97,85,75,30.06,29.70,10,1,10,0.00
2014-11-7,41.2,36.2,32.5,40.4,31.8,23.8,98,85,66,29.97,29.70,13,2,13,0.00
2014-11-8,43.5,37.5,28.6,34.2,26.2,22.2,79,64,45,29.94,29.67,13,2,13,0.00
2014-11-9,47.8,41.1,37.2,34.0,27.3,23.3,77,58,44,29.91,29.76,9,2,10,0.00
2014-11-10,56.8,47.8,39.6,35.1,27.8,24.0,72,47,30,30.03,29.85,15,2,17,0.00
2014-11-11,65.7,56.2,48.0,40.6,26.7,22.5,54,33,20,29.85,29.70,15,4,15,0.00
2014-11-12,56.8,41.2,34.3,45.7,25.9,13.4,80,55,41,30.11,29.73,17,4,17,0.00
2014-11-13,37.4,33.1,26.8,23.2,18.1,13.0,71,55,42,30.09,30.00,6,2,10,0.00
2014-11-14,35.4,30.0,24.4,20.0,14.2,10.4,64,52,39,30.17,30.00,12,4,13,0.00
2014-11-15,37.6,30.9,22.5,25.2,17.2,10.6,74,57,41,30.26,30.17,8,2,9,0.00
2014-11-16,40.3,34.6,30.4,24.1,13.7,8.8,64,42,29,30.17,29.91,13,2,13,0.00
2014-11-17,37.4,33.5,23.4,31.3,27.7,15.0,83,79,65,29.91,29.47,9,0,9,0.00
2014-11-18,23.4,18.7,16.0,14.7,10.4,7.6,77,69,62,29.91,29.61,0,0,0,0.00
2014-11-19,31.1,20.4,12.7,21.8,8.5,1.8,78,61,38,30.06,29.67,14,0,14,0.00
2014-11-20,30.7,24.5,18.7,21.9,14.0,6.6,77,65,43,29.94,29.70,17,4,17,0.00
2014-11-21,32.2,22.8,16.0,14.5,8.6,2.5,64,54,42,30.38,29.94,8,1,9,0.00
2014-11-22,42.8,34.8,21.9,38.1,19.8,-1.0,86,58,22,30.32,29.94,17,6,17,0.00
2014-11-23,49.6,45.1,42.3,38.0,33.1,28.7,83,63,45,30.03,29.61,20,3,20,0.00
2014-11-24,65.8,53.2,42.1,50.1,41.3,28.3,93,66,33,29.64,29.26,25,8,26,0.00
2014-11-25,43.3,38.7,33.4,28.7,22.6,17.9,74,53,40,30.14,29.64,25,6,25,0.00
2014-11-26,33.8,31.5,28.0,26.6,23.0,18.9,84,71,55,30.17,30.00,9,1,9,0.00
2014-11-27,36.5,30.3,27.0,25.4,21.9,17.5,83,71,49,30.06,29.97,8,0,8,0.00
2014-11-28,30.6,25.4,21.9,22.4,12.5,5.1,79,59,38,30.20,30.06,11,3,12,0.00
2014-11-29,40.8,32.3,24.4,25.3,16.1,11.6,65,51,43,30.14,29.82,15,4,15,0.00
2014-11-30,58.5,52.3,41.0,49.1,39.6,25.0,84,62,53,29.85,29.76,17,5,17,0.00
2014-12-1,53.6,35.6,24.8,49.3,23.4,5.8,88,63,43,30.56,29.85,13,4,13,0.00
2014-12-2,38.1,29.0,21.0,31.9,14.2,3.8,78,54,35,30.56,30.00,15,4,16,0.00
2014-12-3,40.1,36.4,31.6,35.4,28.9,13.2,88,75,46,30.14,29.88,17,5,17,0.00
2014-12-4,34.5,28.2,21.4,14.0,11.4,7.9,66,49,36,30.41,30.14,13,3,13,0.00
2014-12-5,39.4,31.2,21.9,30.3,21.0,12.7,78,66,51,30.41,30.14,9,2,9,0.00
2014-12-6,36.7,35.3,31.3,35.7,31.2,17.4,97,85,55,30.44,30.11,10,1,10,0.00
2014-12-7,31.3,25.6,21.9,19.4,10.8,7.2,67,53,41,30.65,30.44,11,4,11,0.00
2014-12-8,37.4,30.3,21.9,21.5,8.9,-2.6,58,43,20,30.56,30.14,21,5,21,0.00
2014-12-9,43.0,36.2,32.9,32.3,26.7,21.9,95,69,50,30.14,30.00,10,2,11,0.00
2014-12-10,33.3,28.4,25.5,31.9,24.4,19.6,98,85,74,30.00,29.73,13,5,13,0.00
2014-12-11,29.1,25.3,23.4,22.0,18.3,14.3,82,75,60,29.85,29.67,12,4,12,0.00
2014-12-12,32.7,28.6,23.5,27.2,21.6,17.7,80,75,68,30.06,29.85,12,4,13,0.00
2014-12-13,34.7,33.2,31.5,33.4,30.0,27.2,97,88,80,30.06,29.88,15,5,16,0.00
2014-12-14,38.1,36.0,34.3,37.1,35.0,33.4,98,96,93,30.00,29.88,8,2,11,0.00
2014-12-15,37.9,36.2,34.9,36.5,34.8,34.0,98,95,89,30.06,29.91,10,1,10,0.00
2014-12-16,42.6,38.8,34.5,41.4,37.6,33.8,98,95,89,29.91,29.67,12,3,12,0.00
2014-12-17,42.1,36.2,29.7,41.3,33.6,24.9,98,90,83,29.91,29.73,16,6,18,0.00
2014-12-18,32.2,30.1,27.9,26.0,24.1,21.6,84,78,72,30.03,29.91,13,5,13,0.00
2014-12-19,28.6,26.8,23.7,22.9,19.1,16.6,82,73,63,30.20,30.00,11,4,11,0.00
2014-12-20,32.5,29.6,26.6,19.9,17.1,13.6,67,60,52,30.23,30.14,6,0,6,0.00
2014-12-21,35.2,30.1,23.5,23.0,17.6,13.8,75,60,47,30.26,30.20,8,1,8,0.00
2014-12-22,38.8,31.8,25.7,23.1,18.6,14.9,64,58,47,30.23,29.97,13,4,14,0.00
2014-12-23,48.6,41.9,33.6,43.2,36.3,22.8,87,80,61,30.00,29.82,12,2,13,0.00
2014-12-24,56.5,50.6,46.4,47.8,45.2,41.8,91,82,68,29.82,29.23,17,5,17,0.00
2014-12-25,49.1,39.8,37.4,43.2,29.3,22.7,81,66,55,30.06,29.32,25,9,25,0.00
2014-12-26,46.2,39.0,32.5,27.1,23.7,19.1,66,54,40,30.17,30.06,15,4,15,0.00
2014-12-27,53.8,47.3,38.3,34.2,30.4,26.0,66,52,38,30.11,29.82,17,3,17,0.00
2014-12-28,50.5,36.9,30.0,39.1,25.4,15.3,83,64,42,30.06,29.82,15,4,15,0.00
2014-12-29,30.9,27.5,24.8,19.3,14.5,11.0,67,58,46,30.23,30.06,9,1,9,0.00
2014-12-30,25.7,22.6,17.2,12.8,9.5,-0.9,65,57,44,30.38,30.23,13,2,13,0.00
2014-12-31,23.7,18.8,14.4,9.1,2.0,-4.0,65,48,37,30.26,29.94,13,5,13,0.00
2015-1-1,29.8,24.5,17.4,18.9,9.1,2.5,70,53,32,29.94,29.76,20,6,20,0.00
2015-1-2,34.3,29.7,24.4,15.0,10.8,5.3,58,45,33,30.26,29.91,16,5,16,0.00